User: anonymous   Login
Location: PSU-Greenbush Astrophysical Observatory
(37.5140°N, 94.9880°W)
Time: 07:28:38
(UTC-06:00)
Language:

Transit 2A - Orbit

View from above orbital plane
View from above orbital plane
View from above satellite
View from above satellite

Ground track
Ground track

The orbit data is extracted from the following two-line orbital elements,

1    45U 60007A   21016.14435256 -.00000052  00000-0  13832-4 0  9991
2    45  66.6932 180.3718 0253301 162.4092 198.5986 14.33702071153192
Epoch (UTC): 16 January 2021 03:27:52
Eccentricity: 0.0253301
inclination: 66.6932°
perigee height: 598 km
apogee height: 960 km
right ascension of ascending node: 180.3718°
argument of perigee: 162.4092°
revolutions per day: 14.33702071
mean anomaly at epoch: 198.5986°
orbit number at epoch: 15319

The dashed part of the orbit path shows where the satellite is in the earth's shadow,  

DLR